When you browse on this site, cookies collect data to enhance your experience and personalize the content and advertising you see.
Visit our Privacy Policy to learn more. By continuing to use the site, you agree to this use of cookies and data.
  • In Hungary
  • List of Countries
  • For 7 days
  • Water Temperature
  • Satellite Maps
  • Weather Map
  • News
  • Weather Widgets
  • user-avatar
    Login

    Hourly Weather Vallenar

    Today, 21 March, Thursday

    Time Temperature Precipitation Wind Pressure Humidity
    00:00 +21°C° 0 mm 0 mps 722 mmHg 63%
    01:00 +20°C° 0 mm 0 mps 722 mmHg 65%
    02:00 +20°C° 0 mm 0 mps 722 mmHg 66%
    03:00 +19°C° 0 mm 0 mps 722 mmHg 68%
    04:00 +19°C° 0 mm 0 mps 721 mmHg 69%
    05:00 +19°C° 0 mm 0 mps 721 mmHg 66%
    06:00 +22°C° 0 mm 1 mps 722 mmHg 63%
    07:00 +23°C° 0 mm 1 mps 722 mmHg 60%
    08:00 +25°C° 0 mm 1 mps 722 mmHg 53%
    09:00 +26°C° 0 mm 2 mps 722 mmHg 47%
    10:00 +28°C° 0 mm 2 mps 722 mmHg 41%
    11:00 +29°C° 0 mm 3 mps 722 mmHg 38%
    12:00 +30°C° 0 mm 3 mps 722 mmHg 36%
    13:00 +32°C° 0 mm 4 mps 722 mmHg 33%
    14:00 +31°C° 0 mm 3 mps 722 mmHg 34%
    15:00 +30°C° 0 mm 3 mps 722 mmHg 36%
    16:00 +30°C° 0 mm 3 mps 721 mmHg 37%
    17:00 +29°C° 0 mm 2 mps 722 mmHg 42%
    18:00 +27°C° 0 mm 2 mps 722 mmHg 47%
    19:00 +26°C° 0 mm 1 mps 722 mmHg 52%
    20:00 +25°C° 0 mm 1 mps 722 mmHg 53%
    21:00 +25°C° 0 mm 1 mps 722 mmHg 55%
    22:00 +22°C° 0 mm 0 mps 722 mmHg 57%
    23:00 +22°C° 0 mm 0 mps 722 mmHg 58%

    Tomorrow, 22 March, Friday

    Time Temperature Precipitation Wind Pressure Humidity
    00:00 +21°C° 0 mm 0 mps 722 mmHg 60%
    01:00 +21°C° 0 mm 0 mps 722 mmHg 61%
    02:00 +20°C° 0 mm 0 mps 722 mmHg 62%
    03:00 +20°C° 0 mm 0 mps 721 mmHg 63%
    04:00 +20°C° 0 mm 0 mps 721 mmHg 64%
    05:00 +22°C° 0 mm 1 mps 722 mmHg 61%
    06:00 +23°C° 0 mm 1 mps 722 mmHg 57%
    07:00 +24°C° 0 mm 1 mps 722 mmHg 54%
    08:00 +25°C° 0 mm 1 mps 722 mmHg 48%
    09:00 +27°C° 0 mm 2 mps 723 mmHg 42%
    10:00 +29°C° 0 mm 3 mps 723 mmHg 36%
    11:00 +30°C° 0 mm 3 mps 723 mmHg 33%
    12:00 +30°C° 0 mm 3 mps 723 mmHg 30%
    13:00 +32°C° 0 mm 4 mps 722 mmHg 28%
    14:00 +32°C° 0 mm 4 mps 722 mmHg 28%
    15:00 +30°C° 0 mm 3 mps 722 mmHg 29%
    16:00 +30°C° 0 mm 3 mps 722 mmHg 30%
    17:00 +28°C° 0 mm 3 mps 722 mmHg 34%
    18:00 +27°C° 0 mm 2 mps 722 mmHg 39%
    19:00 +26°C° 0 mm 1 mps 722 mmHg 44%
    20:00 +25°C° 0 mm 1 mps 723 mmHg 47%
    21:00 +25°C° 0 mm 1 mps 723 mmHg 49%
    22:00 +22°C° 0 mm 0 mps 723 mmHg 52%
    23:00 +22°C° 0 mm 0 mps 723 mmHg 54%

    Day after tomorrow, 23 March, Saturday

    Time Temperature Precipitation Wind Pressure Humidity
    00:00 +21°C° 0 mm 0 mps 722 mmHg 55%
    01:00 +21°C° 0 mm 0 mps 722 mmHg 57%
    02:00 +20°C° 0 mm 0 mps 722 mmHg 59%
    03:00 +20°C° 0 mm 0 mps 722 mmHg 60%
    04:00 +20°C° 0 mm 0 mps 722 mmHg 62%
    05:00 +21°C° 0 mm 0 mps 722 mmHg 59%
    06:00 +21°C° 0 mm 0 mps 722 mmHg 56%
    07:00 +22°C° 0 mm 0 mps 723 mmHg 52%
    08:00 +26°C° 0 mm 1 mps 723 mmHg 47%
    09:00 +28°C° 0 mm 2 mps 724 mmHg 42%
    10:00 +29°C° 0 mm 2 mps 724 mmHg 37%
    11:00 +30°C° 0 mm 3 mps 724 mmHg 35%
    12:00 +31°C° 0 mm 3 mps 724 mmHg 34%
    13:00 +33°C° 0 mm 4 mps 723 mmHg 33%
    14:00 +32°C° 0 mm 4 mps 723 mmHg 34%
    15:00 +31°C° 0 mm 3 mps 723 mmHg 35%
    16:00 +30°C° 0 mm 3 mps 723 mmHg 37%
    17:00 +29°C° 0 mm 3 mps 723 mmHg 41%
    18:00 +28°C° 0 mm 2 mps 723 mmHg 45%
    19:00 +26°C° 0 mm 1 mps 723 mmHg 49%
    20:00 +26°C° 0 mm 1 mps 723 mmHg 50%
    21:00 +25°C° 0 mm 1 mps 724 mmHg 52%
    22:00 +23°C° 0 mm 0 mps 724 mmHg 54%
    23:00 +22°C° 0 mm 0 mps 723 mmHg 55%

    24 March, Sunday

    Time Temperature Precipitation Wind Pressure Humidity
    00:00 +22°C° 0 mm 0 mps 723 mmHg 57%
    01:00 +21°C° 0 mm 0 mps 723 mmHg 59%
    02:00 +21°C° 0 mm 0 mps 723 mmHg 60%
    03:00 +20°C° 0 mm 0 mps 722 mmHg 62%
    04:00 +20°C° 0 mm 0 mps 722 mmHg 64%
    05:00 +20°C° 0 mm 0 mps 722 mmHg 61%
    06:00 +23°C° 0 mm 1 mps 723 mmHg 58%
    07:00 +24°C° 0 mm 1 mps 723 mmHg 55%
    08:00 +26°C° 0 mm 1 mps 723 mmHg 50%
    09:00 +27°C° 0 mm 2 mps 723 mmHg 44%
    10:00 +29°C° 0 mm 3 mps 723 mmHg 38%
    11:00 +30°C° 0 mm 3 mps 723 mmHg 36%
    12:00 +31°C° 0 mm 3 mps 723 mmHg 34%
    13:00 +32°C° 0 mm 4 mps 722 mmHg 32%
    14:00 +31°C° 0 mm 3 mps 722 mmHg 34%
    15:00 +31°C° 0 mm 3 mps 722 mmHg 35%
    16:00 +30°C° 0 mm 3 mps 721 mmHg 37%
    17:00 +29°C° 0 mm 2 mps 722 mmHg 41%
    18:00 +28°C° 0 mm 2 mps 722 mmHg 45%
    19:00 +26°C° 0 mm 1 mps 722 mmHg 50%
    20:00 +26°C° 0 mm 1 mps 722 mmHg 52%
    21:00 +25°C° 0 mm 1 mps 722 mmHg 54%
    22:00 +25°C° 0 mm 1 mps 722 mmHg 56%
    23:00 +24°C° 0 mm 1 mps 722 mmHg 58%

    25 March, Monday

    Time Temperature Precipitation Wind Pressure Humidity
    00:00 +24°C° 0 mm 1 mps 722 mmHg 60%
    01:00 +23°C° 0 mm 1 mps 721 mmHg 62%
    02:00 +23°C° 0 mm 1 mps 721 mmHg 63%
    03:00 +22°C° 0 mm 1 mps 721 mmHg 64%
    04:00 +22°C° 0 mm 1 mps 721 mmHg 66%
    05:00 +22°C° 0 mm 1 mps 721 mmHg 62%
    06:00 +23°C° 0 mm 1 mps 722 mmHg 59%
    07:00 +24°C° 0 mm 1 mps 722 mmHg 56%
    08:00 +25°C° 0 mm 1 mps 722 mmHg 48%
    09:00 +27°C° 0 mm 2 mps 722 mmHg 40%
    10:00 +29°C° 0 mm 2 mps 722 mmHg 33%
    11:00 +30°C° 0 mm 3 mps 722 mmHg 30%
    12:00 +31°C° 0 mm 3 mps 722 mmHg 28%
    13:00 +33°C° 0 mm 4 mps 722 mmHg 26%
    14:00 +32°C° 0 mm 4 mps 721 mmHg 27%
    15:00 +31°C° 0 mm 3 mps 721 mmHg 29%
    16:00 +30°C° 0 mm 3 mps 721 mmHg 30%
    17:00 +29°C° 0 mm 3 mps 721 mmHg 35%
    18:00 +27°C° 0 mm 2 mps 721 mmHg 40%
    19:00 +26°C° 0 mm 1 mps 721 mmHg 45%
    20:00 +25°C° 0 mm 1 mps 721 mmHg 47%
    21:00 +25°C° 0 mm 1 mps 721 mmHg 50%
    22:00 +22°C° 0 mm 0 mps 721 mmHg 53%
    23:00 +21°C° 0 mm 0 mps 721 mmHg 54%

    26 March, Tuesday

    Time Temperature Precipitation Wind Pressure Humidity
    00:00 +23°C° 0 mm 1 mps 721 mmHg 56%
    01:00 +22°C° 0 mm 1 mps 721 mmHg 58%
    02:00 +22°C° 0 mm 1 mps 721 mmHg 59%
    03:00 +21°C° 0 mm 1 mps 721 mmHg 59%
    04:00 +21°C° 0 mm 1 mps 720 mmHg 60%
    05:00 +22°C° 0 mm 1 mps 721 mmHg 54%
    06:00 +23°C° 0 mm 1 mps 721 mmHg 48%
    07:00 +24°C° 0 mm 1 mps 722 mmHg 43%
    08:00 +26°C° 0 mm 1 mps 722 mmHg 36%
    09:00 +28°C° 0 mm 2 mps 722 mmHg 29%
    10:00 +30°C° 0 mm 2 mps 722 mmHg 23%
    11:00 +30°C° 0 mm 3 mps 721 mmHg 22%
    12:00 +31°C° 0 mm 3 mps 721 mmHg 21%
    13:00 +33°C° 0 mm 4 mps 721 mmHg 20%
    14:00 +32°C° 0 mm 4 mps 721 mmHg 21%
    15:00 +31°C° 0 mm 3 mps 721 mmHg 23%
    16:00 +30°C° 0 mm 3 mps 721 mmHg 25%
    17:00 +29°C° 0 mm 2 mps 721 mmHg 29%
    18:00 +27°C° 0 mm 2 mps 721 mmHg 34%
    19:00 +26°C° 0 mm 1 mps 721 mmHg 39%
    20:00 +25°C° 0 mm 1 mps 721 mmHg 41%
    21:00 +22°C° 0 mm 0 mps 721 mmHg 43%
    22:00 +22°C° 0 mm 0 mps 721 mmHg 45%
    23:00 +21°C° 0 mm 0 mps 721 mmHg 46%
    Show more